Track STARLINK-3895 now! 10-day predictions STARLINK-3895 is classified as:
1 52583U 22051AZ 22180.58334491 -.01053969 00000-0 -85047-2 0 9994 2 52583 53.2174 62.1441 0001932 25.2329 233.3424 15.72753579 7888